GW1193 Weather Reports


Display with metric or nautical units.
time (UTC)temp
F
wind
direction
speed
MPH
gust
MPH
rain 1hr
in
rain 24hr
in
rain mn
in
humidity
%
barometer
mb
20260506155553 58 299 0.0 4.0 0.00 0.00 0.00 86 1022.4
20260506155053 58 276 0.0 5.0 0.00 0.00 0.00 86 1022.4
20260506154612 58 65 0.0 5.0 0.00 0.00 0.00 85 1022.3
20260506154053 58 44 0.0 6.0 0.00 0.00 0.00 85 1022.4
20260506153553 58 316 0.0 6.0 0.00 0.00 0.00 85 1022.4
20260506153058 58 63 1.0 3.0 0.00 0.00 0.00 85 1022.2
20260506152553 58 0 0.0 2.0 0.00 0.00 0.00 86 1022.2
20260506152053 58 82 0.0 1.0 0.00 0.00 0.00 88 1022.2
20260506151555 57 251 0.0 1.0 0.00 0.00 0.00 89 1022.1
20260506151053 57 0 0.0 1.0 0.00 0.00 0.00 89 1022.0
20260506150553 57 62 0.0 1.0 0.00 0.00 0.00 89 1022.0
20260506150100 56 0 0.0 3.0 0.00 0.00 0.00 90 1022.0
20260506145556 56 25 0.0 3.0 0.00 0.00 0.00 91 1022.0
20260506145053 56 0 0.0 1.0 0.00 0.00 0.00 91 1022.0
20260506144603 56 0 0.0 1.0 0.00 0.00 0.00 92 1022.0
20260506144053 55 0 0.0 1.0 0.00 0.00 0.00 92 1022.0
20260506143548 55 314 0.0 0.0 0.00 0.00 0.00 93 1021.9
20260506143055 55 311 0.0 0.0 0.00 0.00 0.00 93 1021.9
20260506142551 55 0 0.0 0.0 0.00 0.00 0.00 93 1022.0
20260506142050 55 0 0.0 0.0 0.00 0.00 0.00 94 1021.9
20260506141550 54 0 0.0 1.0 0.00 0.00 0.00 94 1021.8
20260506141052 54 0 0.0 1.0 0.00 0.00 0.00 94 1021.8
20260506140550 54 0 0.0 1.0 0.00 0.00 0.00 94 1021.7
20260506140112 54 0 0.0 1.0 0.00 0.00 0.00 94 1021.6
20260506135547 54 0 0.0 1.0 0.00 0.00 0.00 94 1021.6
20260506135049 54 0 0.0 1.0 0.00 0.00 0.00 94 1021.7
20260506134553 54 0 0.0 1.0 0.00 0.00 0.00 94 1021.6
20260506134050 54 0 0.0 0.0 0.00 0.00 0.00 94 1021.6
20260506133551 54 0 0.0 0.0 0.00 0.00 0.00 94 1021.6
20260506133057 54 0 0.0 0.0 0.00 0.00 0.00 94 1021.5
20260506132550 53 0 0.0 0.0 0.00 0.00 0.00 94 1021.5
20260506132050 53 0 0.0 0.0 0.00 0.00 0.00 94 1021.6
20260506131556 53 0 0.0 0.0 0.00 0.00 0.00 94 1021.6
20260506131050 53 0 0.0 0.0 0.00 0.00 0.00 94 1021.5
20260506130550 53 0 0.0 0.0 0.00 0.00 0.00 94 1021.5
20260506130059 53 0 0.0 0.0 0.00 0.00 0.00 94 1021.5
20260506125550 53 0 0.0 0.0 0.00 0.00 0.00 94 1021.4
20260506125051 53 0 0.0 0.0 0.00 0.00 0.00 94 1021.4
20260506124558 53 0 0.0 1.0 0.00 0.00 0.00 94 1021.3
20260506124048 53 0 0.0 1.0 0.00 0.00 0.00 94 1021.3
20260506123552 53 0 0.0 1.0 0.00 0.00 0.00 94 1021.3
20260506123054 53 0 0.0 0.0 0.00 0.00 0.00 94 1021.3
20260506122550 53 0 0.0 0.0 0.00 0.00 0.00 94 1021.2
20260506122049 53 0 0.0 0.0 0.00 0.00 0.00 94 1021.2
20260506121555 53 0 0.0 1.0 0.00 0.00 0.00 94 1021.3
20260506121050 53 0 0.0 1.0 0.00 0.00 0.00 95 1021.2
20260506120549 53 0 0.0 3.0 0.00 0.00 0.00 95 1021.1
20260506120052 53 0 0.0 3.0 0.00 0.00 0.00 95 1021.2
20260506115550 53 281 1.0 3.0 0.00 0.00 0.00 95 1021.1
20260506115051 53 0 0.0 0.0 0.00 0.00 0.00 95 1021.0
20260506114604 53 0 0.0 1.0 0.00 0.00 0.00 95 1021.0
20260506114051 53 0 0.0 1.0 0.00 0.00 0.00 95 1021.0
20260506113550 53 304 0.0 0.0 0.00 0.00 0.00 95 1021.0
20260506113101 53 0 0.0 0.0 0.00 0.00 0.00 95 1021.0
20260506112550 53 0 0.0 0.0 0.00 0.00 0.00 95 1020.9
20260506112049 52 0 0.0 0.0 0.00 0.00 0.00 95 1021.0
20260506111605 52 0 0.0 0.0 0.00 0.00 0.00 95 1020.9
20260506111050 52 0 0.0 0.0 0.00 0.00 0.00 95 1021.0
20260506110550 52 0 0.0 0.0 0.00 0.00 0.00 95 1020.9
20260506110107 52 0 0.0 1.0 0.00 0.00 0.00 95 1020.8
20260506105552 52 0 0.0 1.0 0.00 0.00 0.00 95 1020.8
20260506105050 52 0 0.0 1.0 0.00 0.00 0.00 95 1020.8
20260506104601 52 0 0.0 0.0 0.00 0.00 0.00 95 1020.8
20260506104050 52 0 0.0 1.0 0.00 0.00 0.00 95 1020.7
20260506103550 52 0 0.0 1.0 0.00 0.00 0.00 95 1020.6
20260506103059 52 0 0.0 1.0 0.00 0.00 0.00 95 1020.7
20260506102550 52 0 0.0 1.0 0.00 0.00 0.00 95 1020.7
20260506102050 52 0 0.0 1.0 0.00 0.00 0.00 95 1020.7
20260506101558 52 0 0.0 1.0 0.00 0.00 0.00 95 1020.7
20260506101050 52 0 0.0 1.0 0.00 0.00 0.00 95 1020.7
20260506100551 52 0 0.0 1.0 0.00 0.00 0.00 95 1020.7
20260506100100 52 0 0.0 1.0 0.00 0.00 0.00 95 1020.7
20260506095550 52 0 0.0 1.0 0.00 0.00 0.00 95 1020.7
20260506095051 52 0 0.0 1.0 0.00 0.00 0.00 95 1020.7
20260506094555 52 0 0.0 1.0 0.00 0.00 0.00 95 1020.7
20260506094049 52 0 0.0 1.0 0.00 0.00 0.00 95 1020.7
20260506093553 52 0 0.0 0.0 0.00 0.00 0.00 95 1020.7
20260506093051 52 0 0.0 0.0 0.00 0.00 0.00 95 1020.7
20260506092550 52 0 0.0 0.0 0.00 0.00 0.00 95 1020.7
20260506092049 52 0 0.0 0.0 0.00 0.00 0.00 95 1020.7
20260506091554 52 0 0.0 0.0 0.00 0.00 0.00 95 1020.7
20260506091051 52 0 0.0 0.0 0.00 0.00 0.00 95 1020.6
20260506090552 52 0 0.0 0.0 0.00 0.00 0.00 95 1020.8
20260506090050 51 0 0.0 0.0 0.00 0.00 0.00 95 1020.9
20260506085550 51 0 0.0 0.0 0.00 0.06 0.00 95 1020.7
20260506085051 51 0 0.0 0.0 0.00 0.06 0.00 95 1020.8
20260506084554 51 0 0.0 0.0 0.00 0.06 0.00 95 1020.8
20260506084051 51 0 0.0 0.0 0.00 0.06 0.00 95 1020.8
20260506083550 51 0 0.0 0.0 0.00 0.06 0.00 95 1020.7
20260506083058 51 0 0.0 0.0 0.00 0.06 0.00 95 1020.7
20260506082550 51 0 0.0 0.0 0.00 0.06 0.00 95 1020.7
20260506082049 51 0 0.0 0.0 0.00 0.06 0.00 94 1020.7
20260506081552 51 0 0.0 0.0 0.00 0.06 0.00 94 1020.7
20260506081049 51 0 0.0 0.0 0.00 0.06 0.00 94 1020.7
20260506080550 51 0 0.0 0.0 0.00 0.06 0.00 94 1020.7
20260506073058 52 0 0.0 0.0 0.00 0.13 0.00 94 1020.4
20260506072550 52 0 0.0 0.0 0.00 0.13 0.00 94 1020.3
20260506072051 52 0 0.0 0.0 0.00 0.13 0.00 94 1020.3
20260506071558 52 0 0.0 1.0 0.00 0.13 0.00 94 1020.2
20260506071049 52 0 0.0 1.0 0.00 0.13 0.00 94 1020.1
20260506070550 52 0 0.0 1.0 0.00 0.13 0.00 94 1020.2
20260506062050 51 0 0.0 1.0 0.00 0.20 0.13 94 1020.1
20260506061614 51 0 0.0 1.0 0.00 0.20 0.13 94 1020.1
20260506061057 51 261 0.0 0.0 0.00 0.20 0.13 95 1020.0
20260506060550 51 0 0.0 0.0 0.00 0.20 0.13 95 1020.0
20260506051053 51 0 0.0 1.0 0.00 0.21 0.13 94 1019.7
20260506050553 51 0 0.0 1.0 0.00 0.21 0.13 94 1019.7
20260506045056 51 236 0.0 1.0 0.00 0.24 0.13 94 1019.7
20260506044621 50 0 0.0 0.0 0.00 0.24 0.13 94 1019.5
20260506044053 50 0 0.0 0.0 0.00 0.24 0.13 93 1019.5
20260506043553 50 0 0.0 0.0 0.00 0.24 0.13 93 1019.4
20260506043054 51 0 0.0 0.0 0.00 0.24 0.13 93 1019.4
20260506042553 51 0 0.0 0.0 0.00 0.24 0.13 92 1019.3
20260506042053 51 0 0.0 0.0 0.00 0.24 0.13 92 1019.2
20260506041553 51 0 0.0 0.0 0.00 0.24 0.13 91 1019.1
20260506041049 51 0 0.0 0.0 0.00 0.24 0.13 91 1019.0
20260506040554 51 0 0.0 0.0 0.00 0.24 0.13 91 1018.8
20260506040056 52 0 0.0 0.0 0.00 0.24 0.13 91 1018.8
20260506035556 52 0 0.0 0.0 0.00 0.28 0.13 90 1018.7
20260506035054 52 0 0.0 0.0 0.00 0.28 0.13 90 1018.8
20260506034555 53 0 0.0 0.0 0.00 0.28 0.13 89 1018.6
20260506034053 53 0 0.0 0.0 0.00 0.28 0.13 88 1018.6
20260506033553 53 0 0.0 0.0 0.00 0.28 0.13 88 1018.6
20260506033054 53 0 0.0 0.0 0.00 0.28 0.13 87 1018.5
20260506032553 54 0 0.0 0.0 0.00 0.28 0.13 87 1018.5
20260506032053 54 0 0.0 1.0 0.00 0.28 0.13 87 1018.4
20260506031555 54 0 0.0 1.0 0.00 0.28 0.13 86 1018.3
20260506031053 55 274 0.0 1.0 0.00 0.28 0.13 85 1018.3
20260506030553 55 0 0.0 1.0 0.00 0.28 0.13 84 1018.1
20260506030057 56 0 0.0 1.0 0.00 0.28 0.13 83 1018.2
20260506025553 56 0 0.0 1.0 0.00 0.32 0.13 83 1018.1
20260506025053 56 0 0.0 1.0 0.00 0.32 0.13 82 1018.0
20260506024559 57 63 0.0 1.0 0.00 0.32 0.13 81 1018.1
20260506024050 58 55 0.0 1.0 0.00 0.32 0.13 80 1018.0
20260506023550 58 0 0.0 1.0 0.00 0.32 0.13 79 1018.0
20260506023100 59 0 0.0 3.0 0.00 0.32 0.13 78 1017.9
20260506022553 59 0 0.0 3.0 0.00 0.32 0.13 77 1017.9
20260506022049 60 323 0.0 3.0 0.00 0.32 0.13 76 1017.9
20260506021606 61 67 0.0 3.0 0.00 0.32 0.13 75 1017.8
20260506021050 61 0 0.0 5.0 0.00 0.32 0.13 76 1017.8
20260506020550 61 0 0.0 7.0 0.00 0.32 0.13 76 1017.8
20260506020053 61 324 2.0 7.0 0.00 0.32 0.13 74 1017.7
20260506015550 61 20 1.0 4.0 0.00 0.38 0.13 75 1017.7
20260506015050 61 255 1.0 4.0 0.00 0.38 0.13 76 1017.7
20260506014554 60 269 0.0 4.0 0.00 0.38 0.13 77 1017.6
20260506014049 59 285 1.0 4.0 0.00 0.38 0.13 76 1017.6
20260506013549 59 0 0.0 1.0 0.00 0.38 0.13 77 1017.8
20260506013054 59 0 0.0 6.0 0.00 0.38 0.13 78 1017.8
20260506012550 59 0 0.0 6.0 0.00 0.38 0.13 78 1017.8
20260506012050 59 287 0.0 2.0 0.00 0.38 0.13 78 1017.7
20260506011555 59 4 0.0 5.0 0.00 0.38 0.13 78 1017.7
20260506011051 59 0 0.0 5.0 0.00 0.38 0.13 78 1017.7
20260506010550 60 278 0.0 2.0 0.00 0.38 0.13 77 1017.7
20260506010115 60 0 0.0 2.0 0.00 0.38 0.13 77 1017.7
20260506005552 60 54 0.0 1.0 0.00 0.44 0.13 77 1017.6
20260506005050 60 0 0.0 1.0 0.00 0.44 0.13 77 1017.6
20260506004554 60 0 0.0 1.0 0.00 0.44 0.13 77 1017.5
20260506004051 60 0 0.0 2.0 0.00 0.44 0.13 77 1017.6
20260506003550 60 0 0.0 2.0 0.00 0.44 0.13 78 1017.5
20260506003054 60 298 0.0 3.0 0.00 0.44 0.13 78 1017.5
20260506002549 60 10 0.0 3.0 0.00 0.44 0.13 78 1017.5
20260506002049 60 64 0.0 2.0 0.00 0.44 0.13 77 1017.5
20260506001555 60 264 0.0 6.0 0.00 0.44 0.13 78 1017.3
20260506001049 60 0 0.0 6.0 0.00 0.44 0.13 78 1017.4
20260506000551 60 257 1.0 5.0 0.00 0.44 0.13 78 1017.4
20260506000056 60 328 2.0 5.0 0.00 0.44 0.13 77 1017.3
20260505235549 61 346 0.0 3.0 0.00 0.46 0.13 77 1017.3
20260505235052 61 0 1.0 5.0 0.00 0.46 0.13 77 1017.3
20260505234607 61 248 0.0 5.0 0.00 0.46 0.13 78 1017.3
20260505234051 60 257 1.0 5.0 0.00 0.46 0.13 77 1017.3
20260505233549 60 322 1.0 6.0 0.00 0.46 0.13 77 1017.3
20260505233049 60 299 1.0 7.0 0.00 0.46 0.13 77 1017.3
20260505232555 61 313 1.0 7.0 0.00 0.46 0.13 75 1017.3
20260505232050 61 296 1.0 8.0 0.00 0.46 0.13 76 1017.2
20260505231556 61 68 3.0 8.0 0.00 0.46 0.13 75 1017.3
20260505231050 61 281 1.0 6.0 0.00 0.46 0.13 76 1017.2
20260505230549 61 250 1.0 6.0 0.00 0.46 0.13 76 1017.3
20260505230053 61 311 2.0 7.0 0.00 0.46 0.13 75 1017.2
20260505225551 62 314 2.0 7.0 0.00 0.46 0.13 74 1017.3
20260505225052 62 306 1.0 7.0 0.00 0.46 0.13 76 1017.3
20260505224555 62 274 1.0 5.0 0.00 0.46 0.13 74 1017.3
20260505224054 62 307 2.0 7.0 0.00 0.46 0.13 73 1017.4
20260505223549 62 298 2.0 7.0 0.00 0.46 0.13 73 1017.4
20260505223053 62 75 2.0 5.0 0.00 0.46 0.13 72 1017.4
20260505222551 63 8 1.0 7.0 0.00 0.46 0.13 73 1017.4
20260505222050 63 300 1.0 7.0 0.00 0.46 0.13 73 1017.4
20260505221551 64 293 1.0 8.0 0.00 0.46 0.13 71 1017.4
20260505221052 63 0 1.0 8.0 0.00 0.46 0.13 73 1017.4
20260505220549 63 0 1.0 4.0 0.00 0.46 0.13 73 1017.3
20260505220056 64 326 0.0 7.0 0.00 0.46 0.13 72 1017.4
20260505215549 64 39 0.0 7.0 0.00 0.46 0.13 72 1017.3
20260505215054 64 305 1.0 8.0 0.00 0.46 0.13 71 1017.3
20260505214613 64 315 2.0 8.0 0.00 0.46 0.13 70 1017.4
20260505214051 65 261 2.0 8.0 0.00 0.46 0.13 69 1017.4
20260505213553 65 1 1.0 5.0 0.00 0.46 0.13 69 1017.4
20260505213103 64 342 0.0 5.0 0.00 0.46 0.13 71 1017.4
20260505212549 64 260 2.0 5.0 0.00 0.46 0.13 71 1017.4
20260505212049 64 0 1.0 5.0 0.00 0.46 0.13 71 1017.5
20260505211553 64 0 0.0 7.0 0.00 0.46 0.13 71 1017.6
20260505211049 64 98 0.0 7.0 0.00 0.46 0.13 71 1017.6
20260505210552 65 301 1.0 5.0 0.00 0.46 0.13 67 1017.5
20260505210059 64 77 0.0 5.0 0.00 0.46 0.13 72 1017.5
20260505205549 63 341 2.0 5.0 0.00 0.46 0.13 70 1017.5
20260505205053 64 32 1.0 5.0 0.00 0.46 0.13 70 1017.6
20260505204559 64 0 1.0 6.0 0.00 0.46 0.13 70 1017.4
20260505204049 64 270 0.0 6.0 0.00 0.46 0.13 70 1017.5
20260505203551 64 66 1.0 4.0 0.00 0.46 0.13 70 1017.5
20260505203056 65 20 0.0 5.0 0.00 0.46 0.13 70 1017.5
20260505202549 64 340 1.0 5.0 0.00 0.46 0.13 68 1017.4
20260505202051 65 349 1.0 5.0 0.00 0.46 0.13 69 1017.5
20260505201555 65 309 0.0 3.0 0.00 0.46 0.13 68 1017.6
20260505201053 64 15 0.0 3.0 0.00 0.46 0.13 71 1017.7
20260505200553 64 37 0.0 5.0 0.00 0.46 0.13 70 1017.7
20260505200104 63 8 0.0 5.0 0.00 0.46 0.13 70 1017.7
20260505195553 63 270 0.0 4.0 0.00 0.46 0.13 71 1017.8
20260505195053 63 319 1.0 4.0 0.00 0.46 0.13 70 1017.8
20260505194605 63 321 1.0 4.0 0.00 0.46 0.13 70 1017.8
20260505194053 64 335 1.0 4.0 0.00 0.46 0.13 70 1017.9
20260505193552 64 0 0.0 3.0 0.00 0.46 0.13 69 1017.8
20260505193057 64 360 1.0 4.0 0.00 0.46 0.13 69 1017.8
20260505192552 64 292 1.0 4.0 0.00 0.46 0.13 72 1017.7
20260505192055 64 73 0.0 4.0 0.00 0.46 0.13 73 1017.7
20260505191557 63 355 1.0 8.0 0.00 0.46 0.13 74 1017.7
20260505191054 62 332 0.0 8.0 0.00 0.46 0.13 74 1017.7
20260505190553 63 299 1.0 8.0 0.00 0.46 0.13 73 1017.7
20260505190055 62 326 0.0 9.0 0.00 0.46 0.13 74 1017.6
20260505185553 62 277 2.0 9.0 0.00 0.46 0.13 75 1017.8
20260505185053 62 341 0.0 7.0 0.00 0.46 0.13 77 1017.7
20260505184552 62 14 1.0 7.0 0.00 0.46 0.13 79 1017.7
20260505184053 62 319 2.0 7.0 0.00 0.46 0.13 77 1017.6
20260505183557 63 57 0.0 3.0 0.00 0.46 0.13 78 1017.7
20260505183057 62 0 1.0 3.0 0.00 0.46 0.13 80 1017.7
20260505182553 62 359 0.0 3.0 0.00 0.46 0.13 80 1017.7
20260505182053 62 271 0.0 3.0 0.00 0.46 0.13 79 1017.6
20260505181555 62 108 0.0 3.0 0.00 0.46 0.13 79 1017.6
20260505181053 61 54 0.0 5.0 0.00 0.46 0.13 80 1017.6
20260505180555 61 26 0.0 5.0 0.00 0.46 0.13 80 1017.6
20260505180107 61 0 0.0 5.0 0.00 0.46 0.13 79 1017.5
20260505175552 60 300 0.0 5.0 0.00 0.46 0.13 81 1017.4
20260505175053 61 347 1.0 4.0 0.00 0.46 0.13 82 1017.4
20260505174603 60 0 1.0 3.0 0.00 0.46 0.13 82 1017.3
20260505174055 60 246 0.0 3.0 0.00 0.46 0.13 81 1017.3
20260505173555 59 0 1.0 4.0 0.00 0.46 0.13 83 1017.3
20260505173052 59 79 1.0 5.0 0.00 0.46 0.13 85 1017.3
20260505172553 59 2 1.0 5.0 0.00 0.46 0.13 86 1017.2
20260505172054 59 269 0.0 4.0 0.00 0.46 0.13 87 1017.2
20260505171554 58 0 0.0 4.0 0.00 0.46 0.13 88 1017.2
20260505171053 58 347 0.0 2.0 0.00 0.46 0.13 89 1017.3
20260505170554 58 0 0.0 2.0 0.00 0.46 0.13 89 1017.3
20260505170057 58 0 0.0 4.0 0.00 0.46 0.13 91 1017.3
20260505165552 57 0 0.0 4.0 0.00 0.46 0.13 92 1017.3
20260505165050 57 0 0.0 1.0 0.00 0.46 0.13 92 1017.3
20260505164552 57 0 0.0 2.0 0.00 0.46 0.13 93 1017.3
20260505164051 56 0 0.0 2.0 0.00 0.46 0.13 93 1017.3
20260505163551 56 336 0.0 4.0 0.00 0.46 0.13 94 1017.2
20260505163054 56 0 0.0 4.0 0.00 0.46 0.13 94 1017.2
20260505162550 56 63 0.0 3.0 0.00 0.46 0.13 95 1017.2
20260505162049 56 0 0.0 2.0 0.00 0.46 0.13 95 1017.2
20260505161605 56 0 0.0 4.0 0.00 0.46 0.13 95 1017.1
20260505161051 55 281 0.0 4.0 0.00 0.46 0.13 96 1017.1
20260505160550 55 0 0.0 4.0 0.00 0.46 0.13 96 1017.1